Terminal Aerodrome Forecast
Issued by NWS

Home | Current Version | Previous Version | Text Only | Print | Product List | Glossary On
Versions: 1 2 3 4 5 6 7 8 9 10 11 12 13 14 15 16 17 18 19 20 21 22 23 24 25 26
000
FTUS44 KOUN 161721
TAFCSM
TAF
KCSM 161721Z 1618/1718 18010KT P6SM BKN050
     FM170200 19007KT P6SM SCT050 BKN250
     FM171500 22010G15KT P6SM SCT250=

USA.gov is the U.S. government's official web portal to all federal, state and local government web resources and services.